Location: Chèvreville
(49.1099°N, 2.8495°E)
Time: 20:35:21
(UTC+00:00)

Lacrosse 4 Rocket - Pass Details

Date: 28 January 2023
Orbit: 535 x 608 km, 68.0° (Epoch: 21 March)

Event Time Altitude Azimuth Distance (km) Brightness Sun altitude
Rises 17:12:24 0° 283° (WNW) 2,879 6.0 -5.9°
Reaches altitude 10° 17:16:47 10° 324° (NW) 1,974 4.4 -6.6°
Maximum altitude 17:17:39 11° 336° (NNW) 1,940 4.2 -6.7°
Drops below altitude 10° 17:18:32 10° 347° (NNW) 1,971 4.1 -6.8°
Enters shadow 17:22:42 - 27° (NNE) 2,806 4.5 -7.5°
